Starlink 5403

operational
NORAD ID: 54862 Int'l Des: 2022-177 Owner: SPXS Country: US Constellation: starlink
LEOCIRCULAR

Über Starlink 5403

Beschreibung wird geladen...

Live-Position

3D-Globus wird geladen...

Nächste Überflüge

Höhenverlauf

Altitude vs Time

uPlot chart will show altitude changes over time

Zweizeiliger Elementsatz

1 54862U 22177AU 26062.16668981 .00063370 00000-0 42823-2 0 9995
2 54862 43.0008 156.1188 0001010 258.6953 333.4438 15.05733316 5818
Epoch: 3. März 2026 • Age: 26 hours

Aktueller Status

Höhe 551.8 km
Geschwindigkeit 7.59 km/s
Subsatellitenpunkt -16.10°S, 154.7°E
Startdatum 28. Dez. 2022
Alter 3.1 years
Typ internet

Technische Details

Klassifizierung Payload
Masse 305.00 kg
Trockenmasse 290.00 kg
Gesamtmasse 305.00 kg
Länge 0.20 m
Durchmesser 2.80 m
Spannweite 9.00 m
Form Box + pan
Hersteller SPXS
Bus-Typ Starlink
Phasenstatus In Orbit
Besitzer/Staat SPXS/US

Große Konstellationen

Loading constellations...